JIA5449 KSHV-KDFW

Flight info

Callsign JIA5449
Flight time 0h 44m
Altitude 24000
Route WAITT BEREE3
Aircraft CRJ7/M-SDFGIRWY/S

Departure

Time 2026-04-25 21:52
Airport Shreveport Regional Airport (KSHV)

Arrival

Time 2026-04-25 22:36
Airport Dallas Fort Worth International Airport (KDFW)
Time Latitude Longitude Altitude Speed Heading
2026-04-25 21:29 32.45487 -93.83023 264 ft 0 kts 168°
2026-04-25 21:38 32.45488 -93.83023 264 ft 0 kts 168°
2026-04-25 21:45 32.45511 -93.83029 265 ft 4 kts 164°
2026-04-25 21:45 32.45536 -93.83040 265 ft 3 kts 158°
2026-04-25 21:46 32.45540 -93.83042 265 ft 1 kts 158°
2026-04-25 21:48 32.45540 -93.83041 265 ft 0 kts 162°
2026-04-25 21:48 32.45539 -93.83041 265 ft 0 kts 167°
2026-04-25 21:48 32.45504 -93.83063 265 ft 9 kts 221°
2026-04-25 21:49 32.45458 -93.83136 266 ft 13 kts 233°
2026-04-25 21:49 32.45397 -93.83216 267 ft 12 kts 231°
2026-04-25 21:49 32.45388 -93.83282 268 ft 6 kts 301°
2026-04-25 21:49 32.45426 -93.83324 269 ft 7 kts 320°
2026-04-25 21:50 32.45443 -93.83373 269 ft 8 kts 256°
2026-04-25 21:50 32.45433 -93.83393 269 ft 0 kts 234°
2026-04-25 21:50 32.45421 -93.83414 268 ft 8 kts 234°
2026-04-25 21:51 32.45364 -93.83469 266 ft 8 kts 156°
2026-04-25 21:51 32.45355 -93.83463 266 ft 0 kts 144°
2026-04-25 21:51 32.45250 -93.83369 264 ft 56 kts 143°
2026-04-25 21:51 32.44712 -93.82886 245 ft 134 kts 142°
2026-04-25 21:52 32.43837 -93.82097 455 ft 174 kts 143°
2026-04-25 21:52 32.42819 -93.81171 1111 ft 192 kts 143°
2026-04-25 21:52 32.41603 -93.80292 1629 ft 226 kts 159°
2026-04-25 21:52 32.40023 -93.79817 2391 ft 233 kts 167°
2026-04-25 21:53 32.38355 -93.79698 3036 ft 250 kts 186°
2026-04-25 21:53 32.36586 -93.80046 3700 ft 263 kts 196°
2026-04-25 21:53 32.35047 -93.81184 4482 ft 267 kts 231°
2026-04-25 21:53 32.34335 -93.83195 5298 ft 271 kts 264°
2026-04-25 21:54 32.34268 -93.85431 6125 ft 275 kts 270°
2026-04-25 21:54 32.34285 -93.87707 6964 ft 278 kts 270°
2026-04-25 21:54 32.34295 -93.90016 7764 ft 282 kts 270°
2026-04-25 21:54 32.34269 -93.92341 8546 ft 285 kts 268°
2026-04-25 21:55 32.34178 -93.94694 9311 ft 288 kts 266°
2026-04-25 21:55 32.34037 -93.97070 10061 ft 291 kts 265°
2026-04-25 21:55 32.33887 -93.99469 10743 ft 298 kts 266°
2026-04-25 21:55 32.33755 -94.01669 10933 ft 317 kts 267°
2026-04-25 21:56 32.33599 -94.04338 11260 ft 334 kts 267°
2026-04-25 21:56 32.33487 -94.06208 11603 ft 340 kts 267°
2026-04-25 21:56 32.33267 -94.09924 12557 ft 344 kts 267°
2026-04-25 21:56 32.33102 -94.12746 13315 ft 344 kts 268°
2026-04-25 21:57 32.32930 -94.15573 14058 ft 345 kts 268°
2026-04-25 21:57 32.32762 -94.18399 14800 ft 346 kts 268°
2026-04-25 21:57 32.32593 -94.21238 15528 ft 347 kts 268°
2026-04-25 21:57 32.32417 -94.24083 16215 ft 348 kts 268°
2026-04-25 21:58 32.32246 -94.26940 16837 ft 349 kts 268°
2026-04-25 21:58 32.32072 -94.29806 17456 ft 350 kts 268°
2026-04-25 21:58 32.31893 -94.32680 18041 ft 351 kts 268°
2026-04-25 21:58 32.31715 -94.35560 18613 ft 352 kts 268°
2026-04-25 21:59 32.31540 -94.38458 19116 ft 355 kts 268°
2026-04-25 21:59 32.31357 -94.41373 19628 ft 357 kts 268°
2026-04-25 21:59 32.31177 -94.44310 20089 ft 360 kts 268°
2026-04-25 22:00 32.30807 -94.50247 21002 ft 365 kts 268°
2026-04-25 22:00 32.30621 -94.53239 21415 ft 367 kts 268°
2026-04-25 22:00 32.30429 -94.56259 21826 ft 370 kts 267°
2026-04-25 22:00 32.30239 -94.59299 22208 ft 372 kts 267°
2026-04-25 22:01 32.30047 -94.62358 22611 ft 374 kts 267°
2026-04-25 22:01 32.29850 -94.65432 22989 ft 376 kts 267°
2026-04-25 22:01 32.29651 -94.68523 23350 ft 378 kts 267°
2026-04-25 22:01 32.29520 -94.70585 23543 ft 381 kts 267°
2026-04-25 22:02 32.29247 -94.74814 23738 ft 392 kts 267°
2026-04-25 22:02 32.29038 -94.78060 23781 ft 401 kts 267°
2026-04-25 22:02 32.28822 -94.81339 23808 ft 410 kts 267°
2026-04-25 22:02 32.28604 -94.84737 23821 ft 418 kts 267°
2026-04-25 22:03 32.28381 -94.88179 23830 ft 424 kts 267°
2026-04-25 22:03 32.28148 -94.91667 23832 ft 425 kts 267°
2026-04-25 22:03 32.27920 -94.95149 23832 ft 425 kts 267°
2026-04-25 22:03 32.27696 -94.98620 23833 ft 424 kts 267°
2026-04-25 22:04 32.27531 -95.01637 23829 ft 423 kts 268°
2026-04-25 22:04 32.27464 -95.05103 23825 ft 421 kts 271°
2026-04-25 22:04 32.27515 -95.08559 23827 ft 420 kts 272°
2026-04-25 22:04 32.27592 -95.12006 23828 ft 419 kts 272°
2026-04-25 22:05 32.27648 -95.15447 23828 ft 419 kts 271°
2026-04-25 22:05 32.27667 -95.18885 23824 ft 418 kts 271°
2026-04-25 22:05 32.27683 -95.22319 23818 ft 418 kts 271°
2026-04-25 22:05 32.27701 -95.25747 23815 ft 417 kts 271°
2026-04-25 22:06 32.27718 -95.29171 23815 ft 416 kts 271°
2026-04-25 22:06 32.27733 -95.32591 23813 ft 416 kts 271°
2026-04-25 22:06 32.27744 -95.35999 23816 ft 415 kts 271°
2026-04-25 22:06 32.27759 -95.39412 23814 ft 415 kts 271°
2026-04-25 22:07 32.27770 -95.42822 23812 ft 415 kts 271°
2026-04-25 22:07 32.27774 -95.45081 23813 ft 415 kts 271°
2026-04-25 22:07 32.27791 -95.49633 23810 ft 414 kts 271°
2026-04-25 22:07 32.27797 -95.53035 23802 ft 414 kts 271°
2026-04-25 22:08 32.27806 -95.56435 23801 ft 413 kts 271°
2026-04-25 22:08 32.27816 -95.59831 23799 ft 413 kts 271°
2026-04-25 22:08 32.27818 -95.63225 23801 ft 413 kts 271°
2026-04-25 22:08 32.27825 -95.66617 23794 ft 413 kts 271°
2026-04-25 22:09 32.27832 -95.70008 23795 ft 413 kts 271°
2026-04-25 22:09 32.27830 -95.73397 23791 ft 412 kts 271°
2026-04-25 22:09 32.27835 -95.76777 23788 ft 412 kts 271°
2026-04-25 22:09 32.27836 -95.80163 23786 ft 412 kts 271°
2026-04-25 22:10 32.27836 -95.83555 23786 ft 414 kts 271°
2026-04-25 22:10 32.27839 -95.86961 23788 ft 415 kts 271°
2026-04-25 22:10 32.27834 -95.90383 23784 ft 417 kts 271°
2026-04-25 22:10 32.27834 -95.93765 23784 ft 418 kts 271°
2026-04-25 22:11 32.27833 -95.97207 23789 ft 419 kts 271°
2026-04-25 22:11 32.27827 -96.00513 23790 ft 421 kts 271°
2026-04-25 22:11 32.27825 -96.03628 23789 ft 422 kts 271°
2026-04-25 22:11 32.27816 -96.07098 23786 ft 423 kts 271°
2026-04-25 22:12 32.27814 -96.09441 23789 ft 423 kts 271°
2026-04-25 22:12 32.27805 -96.12876 23791 ft 408 kts 271°
2026-04-25 22:12 32.27798 -96.16149 23785 ft 389 kts 271°
2026-04-25 22:12 32.27792 -96.18233 23780 ft 378 kts 271°
2026-04-25 22:13 32.27780 -96.22325 23777 ft 377 kts 271°
2026-04-25 22:13 32.27772 -96.25439 23553 ft 381 kts 271°
2026-04-25 22:13 32.27776 -96.28565 23174 ft 380 kts 273°
2026-04-25 22:13 32.28361 -96.31566 22785 ft 377 kts 294°
2026-04-25 22:14 32.29671 -96.34243 22397 ft 375 kts 301°
2026-04-25 22:14 32.31208 -96.36729 22001 ft 375 kts 308°
2026-04-25 22:14 32.33016 -96.38918 21603 ft 371 kts 314°
2026-04-25 22:14 32.34901 -96.40961 21203 ft 363 kts 314°
2026-04-25 22:15 32.36751 -96.42942 20822 ft 354 kts 314°
2026-04-25 22:15 32.38533 -96.44908 20449 ft 346 kts 313°
2026-04-25 22:15 32.40250 -96.46876 20087 ft 342 kts 312°
2026-04-25 22:16 32.43626 -96.50765 19378 ft 337 kts 312°
2026-04-25 22:16 32.45298 -96.52689 19026 ft 334 kts 312°
2026-04-25 22:16 32.46964 -96.54611 18674 ft 333 kts 312°
2026-04-25 22:16 32.48619 -96.56522 18320 ft 331 kts 312°
2026-04-25 22:17 32.50267 -96.58431 17974 ft 331 kts 313°
2026-04-25 22:17 32.51911 -96.60309 17637 ft 327 kts 313°
2026-04-25 22:17 32.53559 -96.62196 17308 ft 328 kts 313°
2026-04-25 22:17 32.55196 -96.64073 16955 ft 328 kts 313°
2026-04-25 22:18 32.56835 -96.65947 16602 ft 327 kts 313°
2026-04-25 22:18 32.58459 -96.67806 16262 ft 322 kts 313°
2026-04-25 22:18 32.60058 -96.69631 15898 ft 315 kts 313°
2026-04-25 22:18 32.61611 -96.71384 15598 ft 302 kts 313°
2026-04-25 22:19 32.63110 -96.73071 15285 ft 293 kts 313°
2026-04-25 22:19 32.64576 -96.74721 14998 ft 288 kts 313°
2026-04-25 22:19 32.66029 -96.76360 14717 ft 289 kts 313°
2026-04-25 22:19 32.67474 -96.78013 14441 ft 287 kts 313°
2026-04-25 22:20 32.68904 -96.79631 14164 ft 280 kts 313°
2026-04-25 22:20 32.70307 -96.81195 13872 ft 273 kts 313°
2026-04-25 22:20 32.71655 -96.82726 13589 ft 266 kts 313°
2026-04-25 22:20 32.72980 -96.84228 13327 ft 259 kts 313°
2026-04-25 22:21 32.74272 -96.85694 13064 ft 256 kts 312°
2026-04-25 22:21 32.75553 -96.87153 12802 ft 254 kts 312°
2026-04-25 22:21 32.76818 -96.88590 12544 ft 250 kts 312°
2026-04-25 22:21 32.78048 -96.90000 12287 ft 248 kts 312°
2026-04-25 22:22 32.79437 -96.91223 12032 ft 256 kts 336°
2026-04-25 22:22 32.81228 -96.91643 11832 ft 271 kts 352°
2026-04-25 22:22 32.83110 -96.91670 11607 ft 268 kts 357°
2026-04-25 22:22 32.84947 -96.91577 11405 ft 261 kts 358°
2026-04-25 22:23 32.86746 -96.91486 11227 ft 256 kts 358°
2026-04-25 22:23 32.88547 -96.91424 11005 ft 261 kts 357°
2026-04-25 22:23 32.90358 -96.91412 10769 ft 259 kts 356°
2026-04-25 22:23 32.92163 -96.91406 10528 ft 259 kts 356°
2026-04-25 22:24 32.93965 -96.91394 10278 ft 259 kts 357°
2026-04-25 22:24 32.95776 -96.91381 10051 ft 260 kts 357°
2026-04-25 22:24 32.97592 -96.91367 9825 ft 261 kts 357°
2026-04-25 22:24 32.99409 -96.91349 9595 ft 259 kts 357°
2026-04-25 22:25 33.00938 -96.91345 9403 ft 261 kts 358°
2026-04-25 22:25 33.02752 -96.91336 9152 ft 263 kts 357°
2026-04-25 22:25 33.04582 -96.91343 8899 ft 262 kts 358°
2026-04-25 22:25 33.06410 -96.91339 8653 ft 264 kts 358°
2026-04-25 22:26 33.08250 -96.91331 8404 ft 265 kts 358°
2026-04-25 22:26 33.10106 -96.91325 8156 ft 268 kts 357°
2026-04-25 22:26 33.11968 -96.91320 7915 ft 266 kts 358°
2026-04-25 22:26 33.13794 -96.91322 7654 ft 259 kts 358°
2026-04-25 22:27 33.15581 -96.91299 7399 ft 255 kts 359°
2026-04-25 22:27 33.17358 -96.91264 7136 ft 256 kts 359°
2026-04-25 22:27 33.19131 -96.91230 6863 ft 253 kts 358°
2026-04-25 22:27 33.20832 -96.91516 6564 ft 244 kts 330°
2026-04-25 22:28 33.22020 -96.92809 6281 ft 228 kts 291°
2026-04-25 22:28 33.22223 -96.94561 6069 ft 208 kts 249°
2026-04-25 22:28 33.21438 -96.95882 5884 ft 195 kts 216°
2026-04-25 22:28 33.20418 -96.97066 5667 ft 213 kts 232°
2026-04-25 22:29 33.19793 -96.98729 5467 ft 228 kts 252°
2026-04-25 22:29 33.19295 -97.00157 5283 ft 217 kts 227°
2026-04-25 22:29 33.18135 -97.01209 5101 ft 207 kts 205°
2026-04-25 22:30 33.15540 -97.02294 4680 ft 191 kts 195°
2026-04-25 22:30 33.14259 -97.02608 4473 ft 186 kts 185°
2026-04-25 22:30 33.12977 -97.02639 4272 ft 186 kts 179°
2026-04-25 22:30 33.12108 -97.02600 4147 ft 184 kts 178°
2026-04-25 22:31 33.10435 -97.02522 3890 ft 179 kts 179°
2026-04-25 22:31 33.09201 -97.02484 3700 ft 175 kts 180°
2026-04-25 22:31 33.07992 -97.02483 3515 ft 171 kts 181°
2026-04-25 22:31 33.06801 -97.02501 3321 ft 171 kts 181°
2026-04-25 22:32 33.05626 -97.02516 3154 ft 165 kts 181°
2026-04-25 22:32 33.04514 -97.02520 2982 ft 156 kts 180°
2026-04-25 22:32 33.03461 -97.02518 2823 ft 145 kts 180°
2026-04-25 22:32 33.02483 -97.02514 2660 ft 137 kts 180°
2026-04-25 22:33 33.01560 -97.02529 2480 ft 130 kts 181°
2026-04-25 22:33 33.00675 -97.02558 2391 ft 125 kts 181°
2026-04-25 22:33 32.99896 -97.02569 2354 ft 128 kts 180°
2026-04-25 22:33 32.99043 -97.02560 2262 ft 127 kts 180°
2026-04-25 22:34 32.98141 -97.02571 2031 ft 129 kts 181°
2026-04-25 22:34 32.97240 -97.02606 1749 ft 130 kts 181°
2026-04-25 22:34 32.96334 -97.02601 1526 ft 130 kts 180°
2026-04-25 22:34 32.95441 -97.02614 1354 ft 127 kts 179°
2026-04-25 22:35 32.94545 -97.02606 1151 ft 129 kts 179°
2026-04-25 22:35 32.93644 -97.02598 994 ft 130 kts 182°
2026-04-25 22:35 32.92723 -97.02601 838 ft 133 kts 182°
2026-04-25 22:35 32.91816 -97.02600 662 ft 126 kts 180°
2026-04-25 22:36 32.90998 -97.02603 566 ft 99 kts 180°
2026-04-25 22:36 32.90421 -97.02605 573 ft 71 kts 180°
2026-04-25 22:36 32.90084 -97.02611 573 ft 41 kts 188°
2026-04-25 22:36 32.89858 -97.02728 566 ft 26 kts 210°
2026-04-25 22:37 32.89779 -97.02785 571 ft 12 kts 211°
2026-04-25 22:37 32.89703 -97.02803 570 ft 10 kts 180°
2026-04-25 22:37 32.89631 -97.02804 570 ft 11 kts 183°
2026-04-25 22:37 32.89538 -97.02804 574 ft 17 kts 180°
2026-04-25 22:38 32.89381 -97.02805 569 ft 25 kts 180°
2026-04-25 22:38 32.89213 -97.02806 576 ft 23 kts 180°
2026-04-25 22:38 32.89071 -97.02806 572 ft 15 kts 179°
2026-04-25 22:38 32.89035 -97.02872 573 ft 11 kts 274°
2026-04-25 22:39 32.89037 -97.02976 572 ft 15 kts 270°
2026-04-25 22:39 32.89037 -97.03106 572 ft 17 kts 271°
2026-04-25 22:39 32.89039 -97.03229 571 ft 13 kts 270°
2026-04-25 22:39 32.89039 -97.03310 580 ft 7 kts 269°
2026-04-25 22:40 32.89038 -97.03378 582 ft 10 kts 269°
2026-04-25 22:40 32.89000 -97.03443 582 ft 14 kts 191°
2026-04-25 22:40 32.88898 -97.03484 582 ft 16 kts 199°
2026-04-25 22:40 32.88802 -97.03544 582 ft 15 kts 217°
2026-04-25 22:41 32.88729 -97.03633 583 ft 15 kts 231°
2026-04-25 22:41 32.88689 -97.03740 583 ft 10 kts 264°
2026-04-25 22:41 32.88696 -97.03796 583 ft 4 kts 309°
2026-04-25 22:41 32.88723 -97.03805 583 ft 3 kts 354°
2026-04-25 22:42 32.88733 -97.03806 583 ft 0 kts 355°